,

(GMT )
Teruel

Tiempo Historia de LETL - Octubre, 2018

Change the Weather History Date:

Viernes, Octubre 12, 2018

  Actual Average Record
Temperature  
Temperatura media 62 ° F -  
Temperatura máxima 73 ° F - - ()
Temperatura mínima 51 ° F - - ()
Degree Days  
Grados día de calefacción 3    
Growing Degree Days 12 (Base 50)    
Moisture  
Punto de rocío 50 ° F    
Average Humidity 69    
Maximum Humidity 94    
Minimum Humidity 38    
Precipitación  
Precipitación 0.00 pul - - ()
Presión al nivel del mar  
Presión al nivel del mar 30.25 pul    
Viento  
Velocidad del viento 6 mph ()    
Velocidad máxima del viento 13 mph    
Max Gust Speed -    
Visibilidad 6.2 Millas    
Eventos      
T = Trace of Precipitation, MM = Missing Value Source: Averaged Metar Reports

Daily Weather History Graph

Daily Weather History Graph

Search for Another Location

Airport or City:

Astronomía

Oct. 12, 2018 Salida Puesta
Hora real 8:12 AM CEST 7:29 PM CEST
Crepúsculo civil 7:44 AM CEST 7:57 PM CEST
Crepúsculo náutico 7:13 AM CEST 8:28 PM CEST
Crepúsculo astronómico 6:41 AM CEST 9:00 PM CEST
Luna 11:32 AM CEST (10/12) 9:55 PM CEST (10/12)
Horas de luz 12h 12m
Horas de luz
11h 17m
Creciente, 12% of the Moon is Illuminated
Oct 12
Creciente
Oct 16
Cuarto creciente
Oct 24
Luna llena
Oct 31
Cuarto menguante
Nov 7
Nueva

Hourly Weather History & Observations

Hora (CEST) Temp. Punto de rocío Humedad Presión Visibilidad Wind Dir Velocidad del viento Velocidad de ráfagas Precip Eventos Condiciones
12:30 AM 57.2 ° F 53.6 ° F 88% 30.18 pul 6.2 mi Sur 9.2 mph - N/A   Desconocido
1:00 AM 57.2 ° F 51.8 ° F 82% 30.18 pul 6.2 mi SSO 10.4 mph - N/A   Desconocido
1:30 AM 55.4 ° F 51.8 ° F 88% 30.18 pul 6.2 mi SSE 6.9 mph - N/A   Desconocido
2:30 AM 53.6 ° F 51.8 ° F 94% 30.21 pul 6.2 mi SSE 8.1 mph - N/A   Desconocido
4:30 AM 51.8 ° F 50.0 ° F 94% 30.21 pul 6.2 mi SE 5.8 mph - N/A   Desconocido
5:00 AM 51.8 ° F 50.0 ° F 94% 30.21 pul 6.2 mi SE 4.6 mph - N/A   Desconocido
5:30 AM 51.8 ° F 50.0 ° F 94% 30.21 pul 6.2 mi ESE 5.8 mph - N/A   Desconocido
6:00 AM 51.8 ° F 50.0 ° F 94% 30.21 pul 6.2 mi SE 4.6 mph - N/A   Parcialmente nublado
6:30 AM 51.8 ° F 50.0 ° F 94% 30.21 pul 6.2 mi SSE 5.8 mph - N/A   Nubes dispersas
7:00 AM 51.8 ° F 50.0 ° F 94% 30.21 pul 6.2 mi SE 5.8 mph - N/A   Muy nublado
7:30 AM 51.8 ° F 50.0 ° F 94% 30.21 pul 6.2 mi ESE 6.9 mph - N/A   Nublado
9:00 AM 55.4 ° F 51.8 ° F 88% 30.27 pul 6.2 mi SE 4.6 mph - N/A   Nublado
9:30 AM 55.4 ° F 53.6 ° F 94% 30.27 pul 6.2 mi SE 5.8 mph - N/A   Nublado
10:00 AM 59.0 ° F 53.6 ° F 82% 30.27 pul 6.2 mi SE 5.8 mph - N/A   Nublado
10:30 AM 62.6 ° F 53.6 ° F 72% 30.30 pul 6.2 mi Sur 3.5 mph - N/A   Parcialmente nublado
11:00 AM 64.4 ° F 51.8 ° F 64% 30.30 pul 6.2 mi SSO 5.8 mph - N/A   Desconocido
12:00 PM 68.0 ° F 53.6 ° F 60% 30.30 pul 6.2 mi ESE 8.1 mph - N/A   Nubes dispersas
12:30 PM 68.0 ° F 53.6 ° F 60% 30.30 pul 6.2 mi SSE 8.1 mph - N/A   Nubes dispersas
1:30 PM 71.6 ° F 50.0 ° F 46% 30.27 pul 6.2 mi SSO 9.2 mph - N/A   Desconocido
2:00 PM 71.6 ° F 50.0 ° F 46% 30.27 pul 6.2 mi Sur 11.5 mph - N/A   Nubes dispersas
3:30 PM 73.4 ° F 48.2 ° F 41% 30.27 pul 6.2 mi SSO 9.2 mph - N/A   Desconocido
4:30 PM 73.4 ° F 46.4 ° F 38% 30.27 pul 6.2 mi SSO 12.7 mph - N/A   Parcialmente nublado
6:00 PM 73.4 ° F 46.4 ° F 38% 30.27 pul 6.2 mi OSO 6.9 mph - N/A   Nubes dispersas
6:30 PM 73.4 ° F 46.4 ° F 38% 30.24 pul 6.2 mi OSO 8.1 mph - N/A   Parcialmente nublado
7:00 PM 71.6 ° F 46.4 ° F 41% 30.27 pul 6.2 mi Oeste 5.8 mph - N/A   Desconocido
7:30 PM 68.0 ° F 46.4 ° F 46% 30.27 pul 6.2 mi Oeste 4.6 mph - N/A   Desconocido
8:00 PM 64.4 ° F 46.4 ° F 52% 30.27 pul 6.2 mi Oeste 5.8 mph - N/A   Desconocido
8:30 PM 62.6 ° F 48.2 ° F 59% 30.27 pul 6.2 mi OSO 6.9 mph - N/A   Desconocido
9:00 PM 62.6 ° F 48.2 ° F 59% 30.27 pul 6.2 mi Variable 2.3 mph - N/A   Desconocido
9:30 PM 62.6 ° F 48.2 ° F 59% 30.30 pul 6.2 mi Variable 2.3 mph - N/A   Desconocido
10:30 PM 60.8 ° F 48.2 ° F 63% 30.30 pul 6.2 mi SE 2.3 mph - N/A   Desconocido
11:00 PM 59.0 ° F 48.2 ° F 67% 30.30 pul 6.2 mi ESE 3.5 mph - N/A   Desconocido
11:30 PM 59.0 ° F 48.2 ° F 67% 30.30 pul 6.2 mi Variable 2.3 mph - N/A   Desconocido